Location: Jalan Sepang
(2.8072°N, 101.8021°E)
Time: 04:58:10
(UTC+00:00)

NOAA 6 - Pass Details

Date: 15 May 2026
Orbit: 767 x 780 km, 98.6° (Epoch: 7 June)

Event Time Altitude Azimuth Distance (km) Brightness Sun altitude
Exits shadow 12:50:29 17° 183° (S) 1,859 5.8 -22.8°
Maximum altitude 12:54:18 58° 258° (WSW) 889 4.5 -23.7°
Drops below altitude 10° 12:59:17 10° 336° (NNW) 2,297 7.0 -24.9°
Sets 13:01:37 0° 341° (NNW) 3,223 7.8 -25.4°
